• In Hungary
  • List of Countries
  • For 7 days
  • Water Temperature
  • Satellite Maps
  • Weather Map
  • News
  • Weather Widgets
  • user-avatar
    Login

    Hourly Weather Nikolsk

    Today, 22 October, Sunday

    Time Temperature Precipitation Wind Pressure Humidity
    00:00 -1°C° 0 mm 1 mps 694 mmHg 95%
    01:00 -1°C° 0 mm 1 mps 694 mmHg 95%
    02:00 -1°C° 0 mm 1 mps 694 mmHg 94%
    03:00 -1°C° 0 mm 1 mps 694 mmHg 94%
    04:00 -1°C° 0 mm 1 mps 694 mmHg 94%
    05:00 -1°C° 0 mm 1 mps 694 mmHg 93%
    06:00 -1°C° 0 mm 1 mps 694 mmHg 92%
    07:00 -1°C° 0 mm 1 mps 694 mmHg 92%
    08:00 +1°C° 0 mm 2 mps 694 mmHg 80%
    09:00 +3°C° 0 mm 2 mps 694 mmHg 69%
    10:00 +6°C° 0 mm 2 mps 694 mmHg 57%
    11:00 +7°C° 0 mm 2 mps 693 mmHg 53%
    12:00 +8°C° 0 mm 3 mps 693 mmHg 48%
    13:00 +10°C° 0 mm 3 mps 692 mmHg 44%
    14:00 +8°C° 0 mm 2 mps 692 mmHg 49%
    15:00 +7°C° 0 mm 2 mps 691 mmHg 55%
    16:00 +6°C° 0 mm 2 mps 691 mmHg 60%
    17:00 +4°C° 0 mm 2 mps 691 mmHg 65%
    18:00 +3°C° 0 mm 2 mps 691 mmHg 70%
    19:00 +2°C° 0 mm 2 mps 691 mmHg 75%
    20:00 +1°C° 0 mm 2 mps 691 mmHg 76%
    21:00 +1°C° 0 mm 2 mps 690 mmHg 76%
    22:00 +1°C° 0 mm 2 mps 690 mmHg 77%
    23:00 -1°C° 0 mm 2 mps 690 mmHg 77%

    Tomorrow, 23 October, Monday

    Time Temperature Precipitation Wind Pressure Humidity
    00:00 -1°C° 0 mm 2 mps 690 mmHg 77%
    01:00 -1°C° 0 mm 2 mps 689 mmHg 77%
    02:00 -1°C° 0 mm 2 mps 689 mmHg 77%
    03:00 -1°C° 0 mm 2 mps 688 mmHg 78%
    04:00 -1°C° 0 mm 2 mps 688 mmHg 78%
    05:00 -1°C° 0 mm 2 mps 688 mmHg 76%
    06:00 +1°C° 0 mm 1 mps 688 mmHg 75%
    07:00 +1°C° 0 mm 1 mps 688 mmHg 73%
    08:00 +2°C° 0 mm 2 mps 688 mmHg 65%
    09:00 +5°C° 0 mm 2 mps 688 mmHg 56%
    10:00 +7°C° 0 mm 2 mps 688 mmHg 48%
    11:00 +8°C° 0 mm 2 mps 688 mmHg 47%
    12:00 +9°C° 0 mm 2 mps 688 mmHg 46%
    13:00 +9°C° 0 mm 2 mps 688 mmHg 45%
    14:00 +8°C° 0 mm 2 mps 688 mmHg 51%
    15:00 +7°C° 0 mm 2 mps 688 mmHg 57%
    16:00 +7°C° 0 mm 1 mps 688 mmHg 63%
    17:00 +5°C° 0 mm 1 mps 689 mmHg 68%
    18:00 +4°C° 0 mm 1 mps 689 mmHg 73%
    19:00 +3°C° 0 mm 1 mps 690 mmHg 78%
    20:00 +3°C° 0 mm 1 mps 691 mmHg 80%
    21:00 +2°C° 0 mm 1 mps 691 mmHg 82%
    22:00 +2°C° 0 mm 1 mps 692 mmHg 83%
    23:00 +2°C° 0 mm 1 mps 692 mmHg 85%

    Day after tomorrow, 24 October, Tuesday

    Time Temperature Precipitation Wind Pressure Humidity
    00:00 +1°C° 0 mm 1 mps 692 mmHg 87%
    01:00 +1°C° 0 mm 1 mps 693 mmHg 89%
    02:00 +1°C° 0 mm 1 mps 693 mmHg 90%
    03:00 +1°C° 0 mm 1 mps 693 mmHg 92%
    04:00 0°C° 0 mm 1 mps 693 mmHg 93%
    05:00 0°C° 0 mm 1 mps 694 mmHg 93%
    06:00 -1°C° 0 mm 0 mps 694 mmHg 93%
    07:00 -1°C° 0 mm 0 mps 695 mmHg 93%
    08:00 +2°C° 0 mm 1 mps 695 mmHg 80%
    09:00 +4°C° 0 mm 1 mps 695 mmHg 67%
    10:00 +6°C° 0 mm 1 mps 695 mmHg 54%
    11:00 +7°C° 0 mm 1 mps 695 mmHg 51%
    12:00 +8°C° 0 mm 1 mps 694 mmHg 49%
    13:00 +8°C° 0 mm 1 mps 694 mmHg 46%
    14:00 +7°C° 0 mm 1 mps 694 mmHg 51%
    15:00 +6°C° 0 mm 1 mps 693 mmHg 56%
    16:00 +5°C° 0 mm 1 mps 693 mmHg 60%
    17:00 +3°C° 0 mm 0 mps 693 mmHg 64%
    18:00 +1°C° 0 mm 0 mps 693 mmHg 68%
    19:00 0°C° 0 mm 0 mps 693 mmHg 72%
    20:00 0°C° 0 mm 0 mps 694 mmHg 74%
    21:00 0°C° 0 mm 0 mps 694 mmHg 75%
    22:00 +1°C° 0 mm 1 mps 694 mmHg 77%
    23:00 +1°C° 0 mm 1 mps 694 mmHg 79%

    25 October, Wednesday

    Time Temperature Precipitation Wind Pressure Humidity
    00:00 0°C° 0 mm 1 mps 693 mmHg 81%
    01:00 0°C° 0 mm 1 mps 693 mmHg 83%
    02:00 0°C° 0 mm 1 mps 693 mmHg 85%
    03:00 0°C° 0 mm 1 mps 692 mmHg 88%
    04:00 0°C° 0 mm 1 mps 692 mmHg 90%
    05:00 0°C° 0 mm 1 mps 692 mmHg 90%
    06:00 0°C° 0 mm 1 mps 692 mmHg 91%
    07:00 0°C° 0 mm 1 mps 692 mmHg 92%
    08:00 +3°C° 0 mm 1 mps 691 mmHg 81%
    09:00 +5°C° 0 mm 1 mps 691 mmHg 70%
    10:00 +6°C° 0 mm 2 mps 691 mmHg 59%
    11:00 +7°C° 0 mm 2 mps 690 mmHg 55%
    12:00 +8°C° 0 mm 2 mps 690 mmHg 52%
    13:00 +9°C° 0 mm 2 mps 690 mmHg 48%
    14:00 +8°C° 0 mm 2 mps 689 mmHg 54%
    15:00 +8°C° 0 mm 1 mps 689 mmHg 61%
    16:00 +6°C° 0 mm 1 mps 689 mmHg 67%
    17:00 +5°C° 0 mm 1 mps 689 mmHg 73%
    18:00 +2°C° 0 mm 0 mps 689 mmHg 79%
    19:00 +1°C° 0 mm 0 mps 689 mmHg 84%
    20:00 +1°C° 0 mm 0 mps 690 mmHg 85%
    21:00 +1°C° 0 mm 0 mps 690 mmHg 86%
    22:00 0°C° 0 mm 0 mps 690 mmHg 87%
    23:00 +1°C° 0 mm 1 mps 690 mmHg 88%

    26 October, Thursday

    Time Temperature Precipitation Wind Pressure Humidity
    00:00 +1°C° 0 mm 1 mps 689 mmHg 89%
    01:00 +1°C° 0 mm 1 mps 689 mmHg 89%
    02:00 +1°C° 0 mm 1 mps 689 mmHg 90%
    03:00 0°C° 0 mm 1 mps 689 mmHg 90%
    04:00 0°C° 0 mm 1 mps 689 mmHg 90%
    05:00 0°C° 0 mm 1 mps 689 mmHg 90%
    06:00 0°C° 0 mm 1 mps 689 mmHg 90%
    07:00 0°C° 0 mm 1 mps 689 mmHg 89%
    08:00 +2°C° 0 mm 2 mps 688 mmHg 78%
    09:00 +4°C° 0 mm 2 mps 688 mmHg 67%
    10:00 +6°C° 0 mm 2 mps 688 mmHg 56%
    11:00 +8°C° 0 mm 2 mps 687 mmHg 52%
    12:00 +9°C° 0 mm 3 mps 686 mmHg 48%
    13:00 +10°C° 0 mm 3 mps 686 mmHg 44%
    14:00 +9°C° 0 mm 3 mps 685 mmHg 49%
    15:00 +7°C° 0 mm 2 mps 685 mmHg 55%
    16:00 +6°C° 0 mm 2 mps 685 mmHg 60%
    17:00 +5°C° 0 mm 2 mps 685 mmHg 65%
    18:00 +5°C° 0 mm 1 mps 685 mmHg 69%
    19:00 +3°C° 0 mm 1 mps 685 mmHg 74%
    20:00 +3°C° 0 mm 1 mps 685 mmHg 77%
    21:00 +2°C° 0 mm 1 mps 685 mmHg 79%
    22:00 +2°C° 0 mm 1 mps 685 mmHg 82%
    23:00 +2°C° 0 mm 1 mps 686 mmHg 85%

    27 October, Friday

    Time Temperature Precipitation Wind Pressure Humidity
    00:00 +1°C° 0 mm 1 mps 686 mmHg 87%
    01:00 +1°C° 0 mm 1 mps 686 mmHg 90%
    02:00 -1°C° 0.1 mm 2 mps 687 mmHg 90%
    03:00 -1°C° 0.1 mm 2 mps 687 mmHg 91%
    04:00 -1°C° 0.1 mm 2 mps 688 mmHg 92%
    05:00 -1°C° 0.2 mm 2 mps 688 mmHg 88%
    06:00 -2°C° 0.2 mm 3 mps 689 mmHg 84%
    07:00 -2°C° 0.2 mm 3 mps 689 mmHg 79%
    08:00 -1°C° 0.1 mm 3 mps 690 mmHg 73%
    09:00 -2°C° 0.1 mm 4 mps 690 mmHg 68%
    10:00 -2°C° 0.1 mm 4 mps 691 mmHg 62%
    11:00 -2°C° 0 mm 4 mps 691 mmHg 58%
    12:00 -1°C° 0 mm 4 mps 691 mmHg 54%
    13:00 -1°C° 0 mm 4 mps 691 mmHg 50%
    14:00 -1°C° 0 mm 4 mps 691 mmHg 52%
    15:00 -2°C° 0 mm 4 mps 692 mmHg 54%
    16:00 -2°C° 0 mm 3 mps 692 mmHg 56%
    17:00 -4°C° 0 mm 3 mps 693 mmHg 59%
    18:00 -4°C° 0 mm 3 mps 693 mmHg 63%
    19:00 -4°C° 0 mm 2 mps 694 mmHg 67%
    20:00 -5°C° 0 mm 2 mps 694 mmHg 69%
    21:00 -5°C° 0 mm 2 mps 694 mmHg 71%
    22:00 -5°C° 0 mm 2 mps 695 mmHg 73%
    23:00 -6°C° 0 mm 2 mps 695 mmHg 75%
    Show more